Plattsmouth, NE

4:13 PM CDT on July 26, 2017 (GMT -0500)
Plattsmouth Municipal

Weather History for KPMV - January, 2013

Change the Weather History Date:

Monday, January 7, 2013

  Actual Average (KOFF) Record (KOFF)
Temperature  
Mean Temperature 35 °F -  
Max Temperature 43 °F 32 °F 66 °F (2003)
Min Temperature 27 °F 14 °F -5 °F (2014)
Degree Days  
Heating Degree Days 30    
Moisture  
Dew Point 26 °F    
Average Humidity 73    
Maximum Humidity 88    
Minimum Humidity 55    
Precipitation  
Precipitation 0.03 in - - ()
Sea Level Pressure  
Sea Level Pressure 30.02 in    
Wind  
Wind Speed 10 mph (SSE)    
Max Wind Speed 16 mph    
Max Gust Speed 23 mph    
Visibility 10 miles    
Events Rain    
Averages and records for this station are not official NWS values.
T = Trace of Precipitation, MM = Missing Value Source: NWS Daily Summary

Daily Weather History Graph

Daily Weather History Graph

Search for Another Location

Airport or City:

Trip Planner

Search our weather history database for the weather conditions in past years. The results will help you decide how hot, cold, wet, or windy it might be!

Date:

Astronomy

Jan. 07, 2013 Rise Set
Actual Time 7:48 AM CST 5:12 PM CST
Civil Twilight 7:17 AM CST 5:42 PM CST
Nautical Twilight 6:43 AM CST 6:17 PM CST
Astronomical Twilight 6:10 AM CST 6:50 PM CST
Moon 3:12 AM CST (1/7) 1:24 PM CST (1/7)
Length of Visible Light 10h 25m
Length of Day
9h 23m
Waning Crescent, 22% of the Moon is Illuminated
Jan 7
Waning Crescent
Jan 11
New
Jan 18
First Quarter
Jan 26
Full
Feb 3
Last Quarter

Hourly Weather History & Observations

Time (CST) Temp. Windchill Dew Point Humidity Pressure Visibility Wind Dir Wind Speed Gust Speed Precip Events Conditions
12:15 AM 28.4 °F 18.0 °F 22.6 °F 79% 30.13 in 10.0 mi SSE 12.7 mph - N/A   Clear
12:35 AM 28.4 °F 18.0 °F 22.5 °F 78% 30.12 in 10.0 mi SSE 12.7 mph - N/A   Clear
12:55 AM 28.4 °F 18.0 °F 22.1 °F 77% 30.11 in 10.0 mi SSE 12.7 mph - N/A   Clear
1:15 AM 28.9 °F 18.6 °F 22.1 °F 76% 30.11 in 10.0 mi SSE 12.7 mph - N/A   Clear
1:35 AM 28.9 °F 17.7 °F 21.9 °F 75% 30.10 in 10.0 mi South 15.0 mph - N/A   Clear
1:55 AM 29.8 °F 19.3 °F 22.1 °F 73% 30.11 in 10.0 mi SSE 13.8 mph 20.7 mph N/A   Clear
2:15 AM 29.7 °F 19.1 °F 22.1 °F 73% 30.11 in 10.0 mi SSE 13.8 mph 18.4 mph N/A   Clear
2:35 AM 28.8 °F 19.5 °F 21.7 °F 75% 30.10 in 10.0 mi SSE 10.4 mph - N/A   Clear
2:55 AM 27.7 °F 18.2 °F 21.7 °F 78% 30.10 in 10.0 mi SSE 10.4 mph - N/A   Clear
3:15 AM 28.9 °F 19.8 °F 21.9 °F 75% 30.10 in 10.0 mi SSE 10.4 mph - N/A   Clear
3:35 AM 29.5 °F 21.1 °F 22.1 °F 74% 30.10 in 10.0 mi SSE 9.2 mph - N/A   Clear
3:55 AM 29.7 °F 20.1 °F 22.1 °F 73% 30.09 in 10.0 mi SSE 11.5 mph 18.4 mph N/A   Clear
4:15 AM 29.3 °F 18.6 °F 22.1 °F 75% 30.07 in 10.0 mi SSE 13.8 mph 19.6 mph N/A   Clear
4:35 AM 29.3 °F 19.6 °F 21.9 °F 74% 30.06 in 10.0 mi SSE 11.5 mph 17.3 mph N/A   Clear
4:55 AM 29.3 °F 19.1 °F 21.9 °F 74% 30.06 in 10.0 mi SSE 12.7 mph 18.4 mph N/A   Clear
5:15 AM 28.9 °F 18.6 °F 21.7 °F 74% 30.05 in 10.0 mi SSE 12.7 mph 19.6 mph N/A   Clear
5:35 AM 28.9 °F 19.2 °F 21.7 °F 74% 30.04 in 10.0 mi SSE 11.5 mph 18.4 mph N/A   Clear
5:55 AM 28.9 °F 18.2 °F 21.7 °F 74% 30.03 in 10.0 mi SSE 13.8 mph 17.3 mph N/A   Clear
6:35 AM 31.1 °F 20.9 °F 22.8 °F 71% 30.02 in 10.0 mi South 13.8 mph 23.0 mph N/A   Clear
6:55 AM 31.8 °F 21.4 °F 23.0 °F 70% 30.03 in 10.0 mi South 15.0 mph 20.7 mph N/A   Clear
7:15 AM 32.0 °F 23.0 °F 23.4 °F 70% 30.03 in 10.0 mi South 11.5 mph 20.7 mph N/A   Clear
7:35 AM 31.8 °F 24.6 °F 23.4 °F 71% 30.03 in 10.0 mi South 8.1 mph - N/A   Clear
7:55 AM 31.6 °F 26.0 °F 23.2 °F 71% 30.04 in 10.0 mi SSW 5.8 mph - N/A   Clear
8:35 AM 32.0 °F 24.2 °F 23.9 °F 72% 30.03 in 10.0 mi South 9.2 mph - N/A   Clear
8:55 AM 32.9 °F 25.3 °F 24.4 °F 71% 30.03 in 10.0 mi SSE 9.2 mph - N/A   Clear
9:15 AM 33.4 °F 25.9 °F 24.6 °F 70% 30.04 in 10.0 mi South 9.2 mph - N/A   Clear
9:35 AM 34.7 °F 27.5 °F 25.2 °F 68% 30.04 in 10.0 mi South 9.2 mph - N/A   Clear
9:55 AM 35.2 °F 28.1 °F 26.4 °F 70% 30.04 in 10.0 mi South 9.2 mph - N/A   Clear
10:15 AM 36.7 °F 29.4 °F 27.0 °F 68% 30.04 in 10.0 mi South 10.4 mph - N/A   Clear
10:35 AM 37.9 °F 33.5 °F 27.7 °F 67% 30.05 in 10.0 mi South 5.8 mph - N/A   Clear
10:55 AM 40.3 °F 32.6 °F 28.0 °F 62% 30.05 in 10.0 mi SSW 13.8 mph 18.4 mph N/A   Clear
11:15 AM 40.3 °F 31.9 °F 27.1 °F 59% 30.04 in 10.0 mi SSW 16.1 mph 21.9 mph N/A   Clear
11:35 AM 41.0 °F 33.1 °F 27.5 °F 59% 30.03 in 10.0 mi SSW 15.0 mph 19.6 mph N/A   Clear
11:55 AM 41.4 °F 33.3 °F 27.5 °F 58% 30.02 in 10.0 mi SSW 16.1 mph 21.9 mph N/A   Clear
12:35 PM 41.5 °F 34.6 °F 27.7 °F 58% 30.00 in 10.0 mi SSW 12.7 mph - N/A   Clear
1:15 PM 43.7 °F 36.9 °F 28.4 °F 55% 29.98 in 10.0 mi SW 13.8 mph 20.7 mph N/A   Clear
1:35 PM 42.4 °F 34.7 °F 27.7 °F 56% 29.99 in 10.0 mi SW 16.1 mph - N/A   Clear
1:55 PM - - - N/A% - - North - - N/A   Unknown
2:15 PM - - - N/A% - - North - - N/A   Unknown
2:35 PM 42.3 °F 35.1 °F 29.1 °F 60% 29.99 in 10.0 mi SW 13.8 mph 18.4 mph N/A Rain Light Rain
2:55 PM 41.5 °F 37.1 °F 29.1 °F 61% 29.99 in 10.0 mi WSW 6.9 mph - N/A   Clear
3:15 PM 41.2 °F 37.3 °F 29.7 °F 64% 29.99 in 10.0 mi WSW 5.8 mph - N/A   Clear
3:35 PM 41.0 °F 39.0 °F 30.2 °F 65% 30.00 in 10.0 mi WSW 3.5 mph - N/A   Clear
3:55 PM 40.5 °F 38.4 °F 30.7 °F 68% 30.00 in 10.0 mi SW 3.5 mph - N/A   Clear
4:15 PM 40.1 °F 36.9 °F 30.0 °F 67% 29.99 in 10.0 mi SW 4.6 mph - N/A   Clear
4:35 PM 38.8 °F 36.5 °F 29.3 °F 69% 29.98 in 10.0 mi SW 3.5 mph - N/A   Clear
5:15 PM 37.9 °F - 29.1 °F 71% 29.98 in 10.0 mi Calm Calm - N/A   Clear
5:35 PM 37.2 °F - 29.1 °F 73% 29.98 in 10.0 mi Calm Calm - N/A   Clear
5:55 PM 36.3 °F - 28.9 °F 75% 29.98 in 10.0 mi Calm Calm - N/A   Clear
6:15 PM 35.8 °F - 29.3 °F 77% 29.99 in 10.0 mi Calm Calm - N/A   Clear
6:35 PM 34.9 °F 32.0 °F 29.5 °F 81% 30.00 in 10.0 mi North 3.5 mph - N/A   Clear
6:55 PM 32.7 °F - 28.6 °F 85% 29.99 in 10.0 mi Calm Calm - N/A   Clear
7:15 PM 33.8 °F - 29.5 °F 84% 29.99 in 10.0 mi Calm Calm - N/A   Clear
7:35 PM 33.8 °F - 28.8 °F 82% 29.99 in 10.0 mi Calm Calm - N/A   Clear
7:55 PM 32.2 °F - 28.6 °F 87% 29.99 in 10.0 mi Calm Calm - N/A   Clear
8:15 PM 32.9 °F - 28.2 °F 83% 29.99 in 10.0 mi Calm Calm - N/A   Clear
8:35 PM 32.7 °F 29.6 °F 28.4 °F 84% 29.98 in 10.0 mi East 3.5 mph - N/A   Clear
8:55 PM 32.5 °F - 28.2 °F 84% 29.98 in 10.0 mi Calm Calm - N/A   Clear
9:15 PM 33.1 °F 28.7 °F 28.2 °F 82% 29.97 in 10.0 mi NE 4.6 mph - N/A   Clear
9:35 PM 32.9 °F 29.8 °F 28.0 °F 82% 29.97 in 10.0 mi East 3.5 mph - N/A   Clear
9:55 PM 32.0 °F 26.4 °F 27.7 °F 84% 29.96 in 10.0 mi East 5.8 mph - N/A   Clear
10:15 PM 31.8 °F 27.3 °F 27.5 °F 84% 29.96 in 10.0 mi East 4.6 mph - N/A   Clear
10:35 PM 31.8 °F 27.3 °F 27.5 °F 84% 29.96 in 10.0 mi East 4.6 mph - N/A   Clear
10:55 PM 30.0 °F 25.2 °F 26.4 °F 86% 29.96 in 10.0 mi ESE 4.6 mph - N/A   Clear
11:15 PM 30.4 °F 24.5 °F 27.1 °F 88% 29.95 in 10.0 mi ESE 5.8 mph - N/A   Clear
11:35 PM 31.5 °F 25.8 °F 27.1 °F 84% 29.94 in 10.0 mi ESE 5.8 mph - N/A   Clear
11:55 PM 30.6 °F 24.7 °F 26.8 °F 86% 29.94 in 7.0 mi ESE 5.8 mph - N/A   Clear